Skip Page Navigation
NASA JPL Caltech
NASA Logo - Jet Propulsion Laboratory + View the NASA Portal
+ Near-Earth Object (NEO) Program
Search JPL
JPL Home Earth Solar System Stars & Galaxies Technology
JPL Solar System Dynamics
BODIES ORBITS EPHEMERIDES TOOLS PHYSICAL DATA DISCOVERY FAQ SITE MAP
JPL Small-Body Database Browser
Search: [ help ]  
9606 (1992 BZ)
Classification: Main-belt Asteroid          SPK-ID: 2009606
Ephemeris | Orbit Diagram | Orbital Elements | Physical Parameters | Discovery Circumstances ]

[ show orbit diagram ]
Orbital Elements at Epoch 2457000.5 (2014-Dec-09.0) TDB
Reference: JPL 13 (heliocentric ecliptic J2000)
 Element Value Uncertainty (1-sigma)   Units 
e .1288884161447027 5.1065e-08  
a 2.453908342531316 1.2119e-08 AU
q 2.137627982898183 1.2293e-07 AU
i 3.106547248839381 5.3848e-06 deg
node 74.27883635698224 8.8478e-05 deg
peri 27.70901681695228 9.0917e-05 deg
M 8.380321008839664 1.8837e-05 deg
tp 2456967.815331363120
(2014-Nov-06.31533136)
7.3481e-05 JED
period 1404.060858392588
3.84
1.0402e-05
2.848e-08
d
yr
n .2563991424218883 1.8995e-09 deg/d
Q 2.770188702164451 1.3682e-08 AU
  Orbit Determination Parameters
   # obs. used (total)      1098  
   data-arc span      11383 days (31.16 yr)  
   first obs. used      1983-12-25  
   last obs. used      2015-02-23  
   planetary ephem.      DE431  
   SB-pert. ephem.      SB431-BIG16  
   condition code      0  
   fit RMS      .527  
   data source      ORB  
   producer      Otto Matic  
   solution date      2015-Mar-09 14:18:59  

Additional Information
 Earth MOID = 1.15491 AU 
 T_jup = 3.480 
[ show covariance matrix ]

Ephemeris | Orbit Diagram | Orbital Elements | Physical Parameters | Discovery Circumstances ]

Physical Parameter Table
Parameter Symbol Value Units Sigma Reference Notes
absolute magnitude H 14.1 mag n/a MPO309226  

9606 (1992 BZ)          Discovered 1992-Jan-28 by Ueda, S., Kaneda, H. at Kushiro
Reference: 19981110/Numbers.arcLast Updated: 2004-04-19

Alternate Designations
 1992 BZ = 1983 YD = 1988 AC3 = 1990 RE8 
Ephemeris | Orbit Diagram | Orbital Elements | Physical Parameters | Discovery Circumstances ]
ABOUT SSD CREDITS/AWARDS PRIVACY/COPYRIGHT GLOSSARY LINKS
FirstGov 2015-Mar-31 18:05 UT
(server date/time)  
NASA Home Page
Site Manager:   Ryan S. Park
Webmaster  Alan B. Chamberlin